User: anonymous   Login
Location: Nairn
(57.5833°N, 3.8667°W)
Time: 06:22:59
(UTC+00:00)
Language:

SL-27 R/B - Orbit

View from above orbital plane
View from above orbital plane
View from above satellite
View from above satellite

Ground track
Ground track

The orbit data is extracted from the following two-line orbital elements,

1 40354U 14084B   20295.20744370 +.00001118 +00000-0 +28267-4 0  9998
2 40354 074.7359 127.8995 0038616 253.7372 105.9591 15.40425134327491
Epoch (UTC): 21 October 2020 04:58:43
Eccentricity: 0.0038616
inclination: 74.7359°
perigee height: 418 km
apogee height: 471 km
right ascension of ascending node: 127.8995°
argument of perigee: 253.7372°
revolutions per day: 15.40425134
mean anomaly at epoch: 105.9591°
orbit number at epoch: 32749

The dashed part of the orbit path shows where the satellite is in the earth's shadow,  

DLR